Weather History for KLNS - April, 2013

Change the Weather History Date:

Thursday, April 4, 2013

  Actual Average Record
Temperature  
Mean Temperature 37 °F -  
Max Temperature 51 °F 59 °F 77 °F (1988)
Min Temperature 24 °F 39 °F 24 °F (2013)
Degree Days  
Heating Degree Days 28    
Moisture  
Dew Point 15 °F    
Average Humidity 41    
Maximum Humidity 61    
Minimum Humidity 26    
Precipitation  
Precipitation 0.00 in - - ()
Sea Level Pressure  
Sea Level Pressure 30.28 in    
Wind  
Wind Speed 6 mph (SW)    
Max Wind Speed 10 mph    
Max Gust Speed 18 mph    
Visibility 10 miles    
Events      
Averages and records for this station are not official NWS values.
T = Trace of Precipitation, MM = Missing Value Source: NWS Daily Summary

Daily Weather History Graph

Daily Weather History Graph

Search for Another Location

Airport or City:

Trip Planner

Search our weather history database for the weather conditions in past years. The results will help you decide how hot, cold, wet, or windy it might be!

Date:

Astronomy

Apr. 04, 2013 Rise Set
Actual Time 6:43 AM EDT 7:32 PM EDT
Civil Twilight 6:16 AM EDT 8:00 PM EDT
Nautical Twilight 5:43 AM EDT 8:33 PM EDT
Astronomical Twilight 5:10 AM EDT 9:06 PM EDT
Moon 3:09 AM EDT (4/4) 1:48 PM EDT (4/4)
Length of Visible Light 13h 43m
Length of Day
12h 48m
Waning Crescent, 34% of the Moon is Illuminated
Apr 4
Waning Crescent
Apr 10
New
Apr 18
First Quarter
Apr 25
Full
May 2
Last Quarter

Hourly Weather History & Observations

Time (EDT) Temp. Windchill Dew Point Humidity Pressure Visibility Wind Dir Wind Speed Gust Speed Precip Events Conditions
12:53 AM 28.9 °F 21.1 °F 10.0 °F 45% 30.35 in 10.0 mi WNW 8.1 mph - N/A   Clear
1:53 AM 27.0 °F 21.6 °F 10.9 °F 51% 30.38 in 10.0 mi WNW 4.6 mph - N/A   Clear
2:53 AM 28.0 °F 21.7 °F 10.9 °F 49% 30.37 in 10.0 mi WNW 5.8 mph - N/A   Clear
3:53 AM 28.0 °F 21.7 °F 12.0 °F 51% 30.36 in 10.0 mi WNW 5.8 mph - N/A   Clear
4:53 AM 25.0 °F 17.1 °F 12.0 °F 58% 30.37 in 10.0 mi WNW 6.9 mph - N/A   Clear
5:53 AM 26.1 °F 20.5 °F 12.0 °F 55% 30.40 in 10.0 mi SW 4.6 mph - N/A   Clear
6:53 AM 24.1 °F 18.2 °F 12.0 °F 60% 30.41 in 10.0 mi West 4.6 mph - N/A   Clear
7:53 AM 27.0 °F - 15.1 °F 61% 30.42 in 10.0 mi Calm Calm - N/A   Clear
8:53 AM 33.1 °F 30.0 °F 15.1 °F 48% 30.41 in 10.0 mi NNW 3.5 mph - N/A   Clear
9:53 AM 36.0 °F 32.1 °F 14.0 °F 41% 30.39 in 10.0 mi NE 4.6 mph - N/A   Clear
10:53 AM 37.0 °F - 14.0 °F 39% 30.37 in 10.0 mi Calm Calm - N/A   Clear
11:53 AM 41.0 °F 37.1 °F 17.1 °F 38% 30.35 in 10.0 mi SSW 5.8 mph - N/A   Clear
12:53 PM 43.0 °F 41.3 °F 16.0 °F 34% 30.32 in 10.0 mi Variable 3.5 mph - N/A   Clear
1:53 PM 46.9 °F - 18.0 °F 32% 30.27 in 10.0 mi Calm Calm - N/A   Clear
2:53 PM 50.0 °F - 16.0 °F 26% 30.23 in 10.0 mi South 9.2 mph - N/A   Clear
3:53 PM 48.9 °F - 16.0 °F 27% 30.20 in 10.0 mi SSW 8.1 mph - N/A   Clear
4:53 PM 48.9 °F - 17.1 °F 28% 30.18 in 10.0 mi SSW 8.1 mph - N/A   Clear
5:53 PM 46.0 °F 41.0 °F 12.9 °F 26% 30.19 in 10.0 mi South 10.4 mph 18.4 mph N/A   Clear
6:53 PM 44.1 °F 38.6 °F 10.9 °F 26% 30.17 in 10.0 mi SSE 10.4 mph - N/A   Clear
7:53 PM 42.1 °F 37.1 °F 12.0 °F 29% 30.14 in 10.0 mi South 8.1 mph - N/A   Clear
8:53 PM 41.0 °F 35.8 °F 18.0 °F 40% 30.14 in 10.0 mi South 8.1 mph - N/A   Clear
9:53 PM 41.0 °F 36.4 °F 19.0 °F 41% 30.14 in 10.0 mi South 6.9 mph - N/A   Clear
10:53 PM 41.0 °F 36.4 °F 19.0 °F 41% 30.10 in 10.0 mi South 6.9 mph - N/A   Clear
11:53 PM 39.9 °F 36.7 °F 21.0 °F 47% 30.08 in 10.0 mi South 4.6 mph - N/A   Clear